Location: Hilton Head Island
(32.2163°N, 80.7526°W)
Time: 01:38:28
(UTC-04:00)

A-11 Canister half - Pass Details

Date: 21 February 2026
Orbit: 1524 x 1683 km, 47.3° (Epoch: 14 March)

Event Time Altitude Azimuth Distance (km) Brightness Sun altitude
Rises 18:58:38 0° 294° (WNW) 4,697 12.7 -10.1°
Reaches altitude 10° 19:02:13 10° 304° (NW) 3,702 11.8 -10.8°
Maximum altitude 19:10:17 32° 5° (N) 2,399 9.9 -12.5°
Enters shadow 19:17:18 13° 61° (ENE) 3,433 10.3 -14.0°
